Location: Estrebay
(49.8292°N, 4.3548°E)
Time: 12:24:58
(UTC+00:00)

Daily predictions for brighter satellites

Satellite Brightness Start Highest point End
(mag) Time Altitude Azimuth Time Altitude Azimuth Time Altitude Azimuth
Cosmos 1400 Rocket 2.7 18:27:00 10° N 18:30:49 64° ENE 18:34:33 10° SSE
ACS3 Solar Sail 2.9 18:26:18 10° ESE 18:31:33 28° ENE 18:36:48 10° N
Cosmos 2322 3.7 18:26:41 10° SSW 18:32:14 61° ESE 18:37:49 10° NE
Cosmos 1066 Rocket 4.3 18:27:25 10° N 18:33:18 73° ENE 18:39:07 10° SSE
BlueWalker 3 2.7 18:29:44 10° WNW 18:33:21 46° SSW 18:36:57 10° SE
Cosmos 2233 Rocket 4.0 18:27:30 10° S 18:33:37 81° E 18:39:50 10° N
Cosmos 1726 1.2 18:33:27 10° S 18:36:12 75° E 18:39:00 10° NNE
Resurs 1-3 3.5 18:32:39 10° SSE 18:36:58 75° ENE 18:41:19 10° N
SAR-Lupe-2 3.7 18:41:21 10° SSE 18:44:56 81° WSW 18:48:32 10° NNW
Cosmos 1315 Rocket 4.2 18:43:22 10° NNE 18:46:27 21° ENE 18:49:14 11° ESE
Meteor PRIRODA 3.3 18:46:25 10° SSE 18:49:42 81° ENE 18:53:00 10° NNW
ATLAS 2AS CENTAUR R/B 4.3 18:43:49 10° W 18:50:17 34° NNW 18:56:33 10° NE
Cosmos 1125 Rocket 3.9 18:45:24 10° NNW 18:50:23 44° ENE 18:55:20 10° SE
Cosmos 1842 3.1 18:48:14 10° N 18:51:49 58° ENE 18:55:22 10° SSE
USA 59 Rocket 0.4 18:49:45 10° NW 18:53:31 65° SW 18:58:41 10° SSE
Cosmos 1536 3.4 18:51:03 10° SSE 18:54:26 31° E 18:57:51 10° NNE
Okean 3 Rocket 4.1 18:50:47 10° SSE 18:54:53 37° E 18:58:59 10° NNE
Cosmos 1707 2.6 18:52:09 10° N 18:55:37 52° ENE 18:59:05 10° SSE
Cosmos 2061 Rocket 4.5 18:49:19 10° SSW 18:55:44 70° WNW 19:02:11 10° N
Cosmos 1515 Rocket 3.9 18:51:41 10° N 18:55:51 43° ENE 19:00:00 10° SSE
COSMOS 2428 2.7 18:50:20 10° SSW 18:56:01 75° ESE 19:01:46 10° NNE
Cosmos 1818 4.0 18:55:48 10° SW 19:01:15 69° NW 19:06:45 10° NE
Okean O Rocket 2.4 18:57:42 12° SE 19:01:22 33° ENE 19:05:21 10° N
Cosmos 2278 Rocket 2.2 19:00:44 10° NNW 19:06:26 87° ENE 19:12:07 10° SSE
USA 306 2.3 19:04:54 10° WSW 19:08:01 83° NNW 19:11:32 11° ENE
Meteor 1-13 Rocket 4.5 19:03:18 10° N 19:09:06 54° ENE 19:14:43 10° SSE
CZ-4B DEB 4.4 19:03:43 10° SSE 19:09:14 78° WSW 19:14:46 10° NNW
CZ-4 R/B 1.3 19:06:25 10° SSE 19:10:14 83° WSW 19:14:10 10° NNW
Cosmos 2034 Rocket 4.5 19:06:26 10° SSE 19:12:02 37° E 19:17:37 10° NNE
CZ-4B R/B 3.1 19:08:18 10° SSE 19:13:43 71° ENE 19:19:04 10° NNW
Cosmos 1500 Rocket 4.5 19:10:44 13° SE 19:13:45 27° E 19:17:25 10° NNE
Cosmos 1766 Rocket 3.7 19:10:09 10° SSW 19:14:31 78° W 19:18:56 10° N
Meteor 2-17 Rocket 4.4 19:09:40 10° N 19:15:45 86° ENE 19:21:50 10° S
Resurs 01 Rocket 1.6 19:11:22 10° SSE 19:15:47 77° ENE 19:20:13 10° N
Helios 1A 2.9 19:12:14 10° NNE 19:16:20 88° WNW 19:20:24 10° SSW
USA 290 2.9 19:13:36 10° NNW 19:16:50 55° WSW 19:20:03 10° S
Meteor 2-10 4.4 19:12:19 10° SSE 19:17:41 50° E 19:23:12 10° NNE
ADEOS 4.4 19:13:23 10° S 19:18:29 53° W 19:23:36 10° NNW
GEOS 3 Rocket 3.9 19:13:39 10° SSE 19:18:52 68° SW 19:24:03 10° NW
USA 186 1.7 19:17:52 10° SSE 19:21:04 86° WSW 19:24:20 10° NNW
CZ-4B R/B 4.4 19:16:46 10° S 19:21:20 47° W 19:26:00 10° NNW
Cosmos 1814 Rocket 4.2 19:17:04 10° SSW 19:22:21 78° WNW 19:27:38 10° NNE
PAYLOAD B 4.4 19:16:45 10° SSE 19:22:21 79° WSW 19:28:00 10° NNW
KORONAS-FOTON 4.4 19:19:02 10° NNW 19:22:40 56° W 19:26:17 10° S
Cosmos 2360 Rocket 4.5 19:18:09 10° W 19:22:48 26° NW 19:27:29 10° NNE
MOS 1-B 4.3 19:17:51 10° SSE 19:23:36 68° ENE 19:29:21 10° NNW
SPOT 5 3.6 19:22:14 21° ESE 19:24:24 32° ENE 19:28:20 10° N
Okean-O 3.4 19:23:05 22° ESE 19:25:09 34° ENE 19:29:08 10° N
Cosmos 2208 Rocket 4.5 19:21:53 10° S 19:26:42 38° ESE 19:31:36 10° NE
USA 267 4.0 19:21:08 10° ENE 19:27:21 49° N 19:33:35 10° WNW
Cosmos 1408 Rocket 3.8 19:24:24 10° SSE 19:28:36 48° E 19:32:51 10° NNE
ISS -3.4 19:26:35 10° SW 19:29:48 43° SSE 19:30:43 34° ESE
NOSS 3-3 (A) 4.2 19:25:21 10° S 19:30:14 37° ESE 19:35:50 10° NE
CZ-4B R/B 3.6 19:26:35 10° S 19:30:21 52° W 19:34:21 10° NNW
Kosmos-1783 4.3 19:30:43 10° W 19:32:23 22° NW 19:33:11 16° N
SL-08 R/B 4.2 19:28:02 10° N 19:32:51 54° WNW 19:37:37 10° SW
Cosmos 2237 Rocket 2.1 19:29:29 10° SSW 19:35:02 64° ESE 19:40:37 10° NE
CSL-04 Rocket 3.6 19:32:09 10° SSE 19:37:31 86° WSW 19:42:52 10° NNW
Aureole 3 Rocket 4.0 19:31:15 10° SSE 19:37:41 48° E 19:42:22 10° NNE
Cosmos 2219 Rocket 4.1 19:35:01 10° WSW 19:40:03 32° NW 19:45:06 10° NNE
Cosmos 1356 Rocket 4.3 19:38:37 10° NNW 19:42:40 49° W 19:46:41 10° S
Lacrosse 4 Rocket 4.3 19:42:27 10° WNW 19:44:23 13° WSW 19:46:20 10° SW
IKONOS-2 4.4 19:42:02 10° NNE 19:46:10 64° ESE 19:50:16 10° S
Meteor 1-11 Rocket 3.6 19:41:06 10° S 19:46:42 77° E 19:52:15 10° NNE
MOS 1 Rocket 4.0 19:45:38 30° ESE 19:47:39 44° ENE 19:52:40 10° N
CARTOSAT-1 4.4 19:46:46 10° S 19:50:52 48° W 19:55:01 10° NNW
Cosmos 158 Rocket 3.7 19:47:07 10° SSW 19:51:57 69° ESE 19:56:48 10° NNE
ATLAS CENTAUR R/B 0.9 19:48:29 10° SSW 19:52:01 64° SE 19:54:53 16° NE
Spot 2 Rocket 4.5 19:50:58 27° E 19:52:03 29° ENE 19:56:21 10° N
NOSS 3-4 (A) 4.2 19:46:49 10° NW 19:53:12 51° NE 19:57:11 27° E
NOSS 3-4 (C) 4.2 19:46:55 10° NW 19:53:19 51° NE 19:57:18 27° E
Cosmos 1805 Rocket 3.5 19:52:47 30° SSE 19:54:42 57° E 19:58:59 10° NNE
Cosmos 1428 Rocket 4.4 19:51:44 10° N 19:57:53 83° E 20:02:18 20° SSE
Cosmos 1733 3.7 19:55:41 10° SSW 19:59:03 52° WNW 20:02:26 10° N
USA 276 3.8 19:58:48 10° W 20:00:38 21° SW 20:00:38 21° SW
Cosmos 2369 Rocket 2.9 19:58:03 10° NNW 20:03:27 40° NE 20:05:12 32° E
SL-24 R/B 4.4 20:01:56 37° SSE 20:03:44 63° E 20:08:29 10° N
Cosmos 1980 3.8 19:58:55 10° SSW 20:04:36 78° WNW 20:10:20 10° NNE
Cosmos 1862 Rocket 4.4 20:02:35 10° N 20:06:32 34° ENE 20:06:32 34° ENE
Meteor 1-21 4.3 20:02:26 10° N 20:08:11 65° ENE 20:10:23 38° SE
Sich 1 2.9 20:07:33 27° S 20:09:53 87° ESE 20:14:14 10° N
Cosmos 1943 Rocket 2.9 20:05:08 10° NW 20:10:24 47° WSW 20:14:05 19° S
Cosmos 1707 Rocket 4.0 20:06:51 10° N 20:11:04 42° ENE 20:11:04 42° ENE
DELTA 2 DEB (DPAF) 3.9 20:07:42 10° NNE 20:11:47 58° E 20:11:47 58° E
Cosmos 2298 Rocket 4.0 20:09:00 10° NNW 20:14:19 79° WSW 20:16:27 37° SSE
Terra 2.0 20:13:52 46° E 20:14:22 48° ENE 20:18:55 10° N
ACS3 Solar Sail 2.1 20:09:35 14° S 20:15:06 69° W 20:21:31 10° NNW
ERS-1 Rocket 3.0 20:14:04 48° ESE 20:15:07 59° ENE 20:20:04 10° N
Cosmos 2195 Rocket 4.4 20:09:14 10° N 20:15:23 83° W 20:19:12 25° S
Cosmos 2150 Rocket 4.0 20:10:50 10° NNW 20:16:00 77° WSW 20:17:56 39° S
USA 32 4.1 20:11:18 10° N 20:16:34 79° W 20:19:24 28° S
Cosmos 1570 Rocket 4.3 20:12:00 10° SSW 20:17:16 69° WNW 20:22:32 10° NNE
Cosmos 1975 3.2 20:18:59 48° NE 20:18:59 48° NE 20:22:01 10° NNE
Cosmos 1805 3.3 20:21:37 56° SW 20:22:11 67° WNW 20:25:51 10° N
Cosmos 1315 Rocket 4.0 20:18:57 10° NNW 20:22:40 39° W 20:24:27 25° SSW
Cosmos 2026 Rocket 3.9 20:16:27 10° N 20:22:44 87° W 20:25:51 31° S
Cosmos 1092 Rocket 4.0 20:16:51 10° N 20:23:14 88° WSW 20:26:28 31° S
Ariane Rocket 3.4 20:24:21 44° ENE 20:24:41 44° ENE 20:29:30 10° N
Meteor 2-12 Rocket 4.3 20:20:20 10° N 20:26:33 84° E 20:28:55 40° SSE
IRS-1A Rocket 4.2 20:26:27 45° SSE 20:28:22 83° ENE 20:34:05 10° NNW
Okean 3 3.9 20:29:25 10° N 20:32:45 48° NE 20:32:45 48° NE
SL-16 R/B 2.1 20:35:16 59° ESE 20:35:26 59° ESE 20:41:02 10° NE
Okean O Rocket 3.2 20:35:02 18° SSW 20:37:37 31° W 20:41:35 10° NNW
Cosmos 1634 Rocket 3.9 20:36:32 34° S 20:39:31 84° E 20:45:53 10° N
SL-14 R/B 4.1 20:36:42 10° NNW 20:40:19 43° W 20:40:36 42° WSW
Cosmos 1656 Rocket 3.5 20:34:43 10° NNW 20:40:25 87° ENE 20:41:19 65° SE
USA 306 3.6 20:37:35 10° WNW 20:40:35 41° NNW 20:40:35 41° NNW
ATLAS 2AS CENTAUR R/B 4.4 20:37:28 10° NW 20:43:14 26° N 20:48:49 10° ENE
IRS-1C Rocket 4.1 20:45:02 60° S 20:45:59 79° WSW 20:51:18 10° NNW
Cosmos 773 Rocket 3.9 20:45:39 38° SSW 20:47:47 85° WNW 20:53:07 10° NNE
Okean 1-7 4.1 20:45:47 10° N 20:48:39 35° NNE 20:48:39 35° NNE
Cosmos 2263 4.2 20:45:53 10° NNW 20:51:35 62° ENE 20:51:55 61° ENE
Resurs 01 Rocket 4.4 20:50:27 10° WSW 20:52:45 14° W 20:55:03 10° NW
Cosmos 2228 Rocket 3.3 20:50:54 10° NNW 20:55:20 68° W 20:55:20 68° W
SPOT 3 Rocket 3.4 21:00:55 80° NNE 21:00:55 80° NNE 21:05:54 10° NNW
Okean-O 4.1 21:00:31 27° WSW 21:01:32 30° W 21:05:26 10° NNW
SPOT 5 4.0 21:01:23 30° WSW 21:02:23 34° W 21:06:27 10° NNW
Cosmos 2142 Rocket 4.3 21:02:36 72° ESE 21:02:48 73° E 21:08:55 10° NNE
NOSS 3-3 (C) 4.1 21:01:00 10° SW 21:06:30 67° NW 21:13:06 10° NE
ISS -0.8 21:03:11 10° W 21:03:43 14° W 21:03:43 14° W
USA 267 3.4 21:08:22 52° E 21:09:54 68° NNE 21:16:24 10° WNW
Cosmos 1655 Rocket 4.5 21:04:43 10° N 21:10:37 47° ENE 21:10:37 47° ENE
Cosmos 724 4.2 21:15:31 72° NE 21:15:31 72° NE 21:20:43 10° NE
Cosmos 2180 Rocket 4.4 21:17:01 80° ESE 21:17:09 80° E 21:23:32 10° NNE
Cosmos 2237 Rocket 4.0 21:14:40 10° WSW 21:19:31 29° NW 21:24:25 10° NNE
NOSS 3-3 (A) 4.5 21:15:20 10° WSW 21:20:48 55° NW 21:27:21 10° NE
Cosmos 2279 Rocket 4.1 21:20:00 60° SW 21:21:06 74° W 21:27:21 10° N
Cosmos 1607 4.1 21:18:22 10° SW 21:24:50 76° NW 21:31:18 10° NE
Cosmos 2297 4.3 21:23:42 10° NW 21:28:59 48° WSW 21:28:59 48° WSW
ATLAS CENTAUR R/B 3.5 21:26:51 10° W 21:29:46 22° NNW 21:29:51 22° NNW
Spot 2 Rocket 4.3 21:31:06 45° W 21:31:06 45° W 21:35:39 10° NNW
NOSS 3-4 (A) 4.1 21:37:39 10° NW 21:44:18 55° WSW 21:44:37 54° SW
NOSS 3-4 (C) 4.1 21:37:45 10° NW 21:44:25 55° WSW 21:44:43 55° SW
Cosmos 2369 Rocket 3.1 21:42:08 10° NW 21:46:58 42° W 21:46:58 42° W
Terra 3.7 21:52:34 24° W 21:52:34 24° W 21:56:00 10° NW
ACS3 Solar Sail 4.3 21:57:28 10° WSW 22:00:20 13° W 22:03:12 10° NW
SL-16 R/B 3.8 22:17:00 20° W 22:19:55 31° NW 22:24:56 10° NNE
ATLAS 2AS CENTAUR R/B 3.5 22:29:27 10° NW 22:35:58 41° NNE 22:36:31 41° NE
Cosmos 1943 4.4 22:41:44 37° N 22:41:44 37° N 22:45:26 10° NNE
USA 267 4.3 22:55:42 34° W 22:55:42 34° W 22:59:28 10° WNW
Cosmos 1697 Rocket 4.2 22:48:40 10° NNW 22:52:28 32° NNE 22:52:28 32° NNE
Cosmos 2344 3.9 23:19:34 10° NW 23:27:14 76° W 23:27:14 76° W
Cosmos 1980 Rocket 3.7 23:48:54 10° NNW 23:52:13 33° N 23:52:13 33° N
